sat.trackr.live / text

‹ back to catalog

STARLINK-34217

NORAD 64488 · 2025-133S

PAYLOAD ACTIVE UNKNOWN

§ Identity

Operator
Country
US
Launch date
2025-06-23
Launch site
AFETR
Launch vehicle
Mass (kg)
RCS (m²)

Purposes: comms

External: N2YO · Heavens-Above · Gunter

§ Orbital elements

Epoch: 2026-05-25T05:18:03.966336Z

Period
94.11 min
Inclination
53.1573°
Eccentricity
0.0001000
Mean motion
15.30205565 rev/d
Perigee alt
474.5 km
Apogee alt
475.9 km
Semi-major
6,853.3 km
B*
4.1986e-4
RAAN
121.4586°
Arg perigee
83.4907°
Mean anomaly
276.6207°
Rev number
5,279

§ Raw data

STARLINK-342171 64488U 25133S   26145.22087924  .00012098  00000+0  41986-3 0  99962 64488  53.1573 121.4586 0001000  83.4907 276.6207 15.30205565 52790

JSON: /api/v1/satellites/64488 · /tle

For live sub-satellite position, see the globe view (requires WebGL).

§ Visibility from observer

Set your observer location to see the next 7 days of passes ≥ 10°. The values pass through the URL so the page stays shareable.

No JS? Fill the form by hand. The geolocation button needs JavaScript.